Regional Weather Roundup
Issued by NWS

Home | Current Version | Previous Version | Text Only | Print | Product List | Glossary On
Versions: 1 2 3 4 5 6 7 8 9 10 11 12 13 14 15 16 17 18 19 20 21 22 23 24 25 26 27 28 29 30 31 32 33 34 35 36 37 38 39 40 41 42 43 44 45 46 47 48 49 50
000
ASUS43 KLMK 290310
RWRKY
KENTUCKY REGIONAL WEATHER ROUNDUP
NATIONAL WEATHER SERVICE LOUISVILLE KY
1100 PM EDT MON JUL 28 2014

NOTE "FAIR" INDICATES FEW OR NO CLOUDS BELOW 12,000 FEET
WITH NO SIGNIFICANT WEATHER AND/OR OBSTRUCTIONS TO VISIBILITY.

KYZ001>023-026-027-061>063-070>075-290400-
WESTERN AND SOUTH CENTRAL KENTUCKY

CITY           SKY/WX    TMP DP  RH WIND       PRES   REMARKS
PADUCAH        CLEAR     71  59  65 N10       30.07R
HENDERSON      CLEAR     66  54  63 N6        30.06R
OWENSBORO      CLEAR     67  55  65 N7        30.06R
HOPKINSVILLE   CLEAR     70  59  68 N6        30.05R
BOWLING GREEN  CLEAR     70  57  63 NW5       30.05R
GLASGOW        CLOUDY    69  58  67 NW5       30.04R
$$

KYZ024-025-028>034-038-045-046-053-290400-
NORTH CENTRAL KENTUCKY

CITY           SKY/WX    TMP DP  RH WIND       PRES   REMARKS
LOUISVILLE/SDF CLEAR     69  56  62 N9        30.03R
LOUISVILLE/LOU CLEAR     68  55  63 N8        30.04R
FORT KNOX      CLEAR     65  58  78 NW3       30.03R
$$

KYZ035>037-039>044-047>052-055>060-089>105-290400-
NORTHEAST KENTUCKY

CITY           SKY/WX    TMP DP  RH WIND       PRES   REMARKS
LEXINGTON      CLEAR     64  57  78 NW6       30.02R
COVINGTON      CLEAR     62  51  67 NW7       30.02R
FRANKFORT      CLEAR     64  56  75 NW8       30.02R
$$

KYZ054-064>069-076>088-106>120-290400-
SOUTHEAST KENTUCKY

CITY           SKY/WX    TMP DP  RH WIND       PRES   REMARKS
JACKSON        CLEAR     63  58  83 VRB3      30.01R
LONDON         CLEAR     65  59  81 CALM      30.02S
SOMERSET       PTCLDY    63  61  94 CALM      30.03S
MIDDLESBORO    CLEAR     63  60  91 CALM      30.02R
MONTICELLO     PTCLDY    62  61  97 CALM      30.04R
$$



USA.gov is the U.S. government's official web portal to all federal, state and local government web resources and services.